Flag Weather past 2 weeks in Gerolstein, Rhineland-Palatinate, Germany

Now
51 °F

Clear.


Feels Like: 51 °F
Forecast: 47 / 57 °F
Wind: 2 mph from Southwest

Location: Nuerburg-Barweiler

Current Time: Nov 1, 2014 at 3:05:34 AM

Latest Report: Nov 1, 2014 at 2:00 AM


Visibility: 13 mi

Pressure: 30.22 "Hg

Humidity: 91%

Dew point: 49 °F

Location of GerolsteinLocation

Historic Weather in Gerolstein — Graph

°F

Gerolstein temperature yesterday

Maximum temperature yesterday: 62 °F (at 3:00 PM)
Minimum temperature yesterday: 50 °F (at 1:00 AM)
Average temperature yesterday: 54 °F

Past Weeks' High & Low Weather Summary

 TemperatureHumidityPressure
High67 °F (Oct 18, 4:00 PM)100% (Oct 27, 10:00 AM)30.34 "Hg (Oct 27, 10:00 AM)
Low38 °F (Oct 22, 9:00 AM)65% (Oct 24, 3:00 PM)29.59 "Hg (Oct 21, 4:00 PM)
Average49 °F91%30.13 "Hg
* Reported Oct 17 3:00 AM — Nov 1 2:00 AM, Gerolstein, Weather by CustomWeather, © 2014

Note: Actual official high and low records may vary slightly from our data, if they occured in-between our weather recording intervals... More about our weather records

Advertising

Gerolstein weather history for previous 24 hours

 ConditionsComfort  
Time TempWeatherWind HumidityBarometerVisibility
2:00 AM
Nov 1
51 °FClear.2 mph91%30.22 "Hg12 mi
1:00 AM52 °FPassing clouds.3 mph92%30.22 "Hg9 mi
12:00 AM53 °FOvercast.2 mph92%30.23 "Hg7 mi
11:00 PM
Oct 31
52 °FOvercast.2 mph93%30.24 "Hg7 mi
9:00 PM52 °FPassing clouds.2 mph92%30.24 "Hg12 mi
8:00 PM54 °FPassing clouds.2 mph90%30.24 "Hg14 mi
7:00 PM55 °FPassing clouds.3 mph88%30.24 "Hg16 mi
6:00 PM56 °FPassing clouds.2 mph86%30.23 "Hg19 mi
5:00 PM58 °FOvercast.3 mph79%30.22 "Hg28 mi
3:00 PM62 °FOvercast.3 mph68%30.22 "Hg25 mi
2:00 PM61 °FOvercast.3 mph72%30.22 "Hg25 mi
1:00 PM61 °FOvercast.3 mph75%30.23 "Hg19 mi
12:00 PM59 °FOvercast.2 mph81%30.25 "Hg16 mi
11:00 AMN/APassing clouds.7 mphN/AN/A2 mi
9:00 AMN/APassing clouds.5 mphN/AN/A18 mi
8:00 AM51 °FPartly sunny.2 mph94%30.26 "Hg10 mi
7:00 AM51 °FPartly sunny.3 mph94%30.25 "Hg11 mi
6:00 AM51 °FPassing clouds.2 mph95%30.26 "Hg16 mi
5:00 AM51 °FFog.3 mph97%30.25 "Hg4 mi
3:00 AM50 °FFog.2 mph99%30.28 "Hg2 mi
Weather by CustomWeather, © 2014

See weather overviewHow to use our weather pages